Wind_Speed
7 8 8 10 9 8 5 3 8 9 10 12 9 8 8 7 6 7 6 5 4 4 3 3 4 6 8 9 11 12 12 12 12 13 13 13 14 15 16 17 15 15 15 16 16 18 18 15 13
9 10 11 10 10 7 6 8 6 6 9 11 11 9 9 9 8 10 8 8 8 7 6 6 6 7 7 7 8 9 10 11 11 11 10 12 12 12 14 14 15 15 15 15 14 15 16 14 14
9 11 11 9 8 8 8 6 8 10 10 9 11 10 11 12 13 12 13 13 12 11 10 9 8 8 8 7 6 7 8 10 10 10 10 9 10 11 11 12 13 13 14 14 13 13 12 13 10
10 10 10 7 7 9 9 9 12 13 14 13 10 9 11 10 14 16 18 18 17 15 14 13 12 11 10 10 9 8 7 8 10 9 9 9 8 9 10 10 10 11 11 12 12 12 11 10 10
10 10 8 7 7 8 9 10 11 13 13 10 10 12 14 13 14 15 20 19 20 20 18 17 16 15 13 13 13 12 10 8 9 10 10 10 8 7 9 9 9 9 9 9 10 10 10 10 9
9 9 8 8 9 8 9 10 11 11 12 12 9 11 15 17 16 17 18 22 22 21 21 20 19 19 17 16 16 15 14 13 12 11 11 10 10 9 9 9 9 9 9 9 9 9 8 9 10
11 9 9 8 10 11 12 11 12 14 18 18 13 13 15 17 18 16 19 21 24 25 24 23 23 22 22 21 20 19 18 17 16 15 14 14 13 12 11 10 10 10 11 9 8 8 8 9 9
11 11 11 9 11 15 15 15 15 16 20 24 23 19 18 19 20 18 18 20 22 25 26 27 27 26 26 26 24 24 23 22 21 19 18 18 17 15 15 14 13 11 11 12 11 10 8 7 9
12 13 14 13 13 16 16 17 18 19 23 25 24 21 19 20 22 22 20 19 21 22 24 27 29 28 27 27 27 26 27 26 25 24 23 22 22 20 18 17 17 16 15 14 14 13 12 11 9
12 14 15 16 16 16 18 18 18 21 27 24 22 22 21 18 19 20 22 22 22 23 25 27 29 30 29 30 30 29 29 29 29 28 28 27 27 26 24 23 21 21 20 19 18 18 17 16 15
12 15 16 20 19 19 18 20 20 23 23 25 26 26 25 23 23 24 25 26 25 26 27 29 29 30 31 32 32 32 32 32 31 31 30 29 30 30 29 27 26 25 25 25 23 23 22 21 19
12 15 15 19 21 18 16 19 19 24 22 26 28 27 29 29 28 28 29 29 27 26 25 28 30 32 32 32 32 33 33 33 33 33 33 33 33 34 33 31 30 29 29 29 29 28 27 26 25
13 15 16 18 17 16 14 17 22 27 28 29 31 32 32 31 30 27 26 26 27 26 26 26 26 29 31 32 34 35 35 35 35 35 35 35 36 37 36 35 34 33 32 32 32 32 32 30 30
11 11 15 15 16 15 16 20 24 26 27 28 27 27 28 28 28 28 27 27 27 28 30 28 27 29 30 31 30 33 37 38 37 37 37 37 38 39 39 38 38 36 36 35 35 35 35 35 34
10 12 15 15 17 13 13 18 24 23 24 22 23 24 26 28 28 27 26 26 27 28 29 30 30 29 30 32 33 34 35 38 40 42 41 40 40 41 41 40 41 40 39 38 38 38 38 38 38
11 10 14 16 14 14 14 18 25 27 27 28 27 26 26 26 28 28 28 27 27 27 28 30 32 33 32 32 35 35 37 39 42 43 44 43 43 45 45 45 45 45 43 42 42 42 41 41 41
8 8 12 18 14 15 17 16 20 27 28 28 27 28 30 31 32 32 33 35 35 36 37 38 40 42 42 41 40 41 42 41 41 44 46 48 47 47 48 48 49 49 48 47 46 45 45 43 42
10 10 12 15 17 20 23 21 21 25 29 31 31 32 33 34 36 37 39 41 43 44 45 44 44 43 43 44 44 44 45 44 38 38 38 42 48 51 52 52 52 52 51 49 49 49 48 47 46
10 11 13 18 21 22 24 27 28 28 30 33 34 35 36 37 39 41 42 44 46 48 43 39 42 42 43 44 46 46 46 47 44 44 44 44 43 46 50 51 52 53 54 54 53 52 50 50 50
11 13 16 19 23 25 28 29 29 29 30 32 34 36 37 39 40 41 43 44 44 44 44 45 45 46 46 45 50 51 49 53 55 54 54 52 52 49 47 47 47 50 52 53 53 54 53 53 52
15 17 19 21 25 28 32 32 30 29 30 31 31 33 35 38 40 41 41 43 44 46 48 49 51 52 51 53 55 55 55 58 62 61 62 61 58 57 56 54 52 50 50 49 50 51 52 53 54
18 22 23 24 26 28 31 38 32 33 34 37 38 40 43 45 46 47 48 50 49 48 48 51 55 58 59 59 58 59 60 62 64 65 67 67 67 66 63 61 58 57 57 54 53 52 51 52 55
21 23 25 27 29 29 31 40 38 38 41 45 47 50 53 54 56 57 58 59 59 58 56 55 55 55 56 58 60 63 64 66 67 69 70 70 71 74 73 70 68 64 61 60 58 58 57 55 54
21 24 27 27 30 33 36 40 42 46 50 52 54 56 58 60 61 63 64 63 63 61 58 58 59 59 60 64 67 68 70 72 74 77 78 77 78 78 80 81 77 73 68 62 62 60 61 60 58
23 26 29 33 34 39 40 44 47 51 53 55 58 60 62 63 64 65 68 69 68 65 62 63 63 64 66 68 69 72 75 77 81 84 85 84 84 86 86 86 87 81 77 72 66 65 65 64 63
25 28 33 37 39 40 42 46 49 50 55 57 60 62 64 65 67 70 71 70 68 68 68 69 69 71 76 78 78 76 76 78 80 88 93 94 93 94 94 91 90 89 85 80 77 71 65 67 67
29 33 37 40 43 44 46 47 49 52 56 58 62 63 64 67 69 69 67 68 69 71 72 74 78 81 85 85 83 79 81 84 83 84 85 87 91 97 100 97 94 92 89 86 82 80 76 70 71
34 38 41 43 46 50 50 50 50 55 59 61 63 64 66 67 67 67 68 71 73 76 78 80 82 83 81 82 84 84 86 87 88 87 85 85 86 90 95 101 103 100 96 93 93 88 86 81 74
39 41 43 44 47 52 55 52 51 57 60 63 65 66 67 67 68 70 74 76 77 79 83 87 88 84 83 86 86 87 87 81 70 66 67 70 74 76 80 83 93 103 105 102 97 94 92 90 83
41 44 46 48 51 53 57 54 54 56 60 63 65 66 67 68 70 75 77 78 81 85 89 89 87 85 85 86 85 78 67 60 56 59 61 57 55 54 54 58 62 69 83 93 97 99 100 96 91
Wind_Direction
211 230 233 236 247 242 267 273 241 234 228 227 220 222 223 222 244 267 281 272 284 293 318 342 355 1 12 16 17 15 14 16 19 22 24 27 27 27 32 31 30 21 18 25 26 26 26 31 32
212 230 235 236 242 256 264 267 301 298 252 247 244 248 255 255 258 271 272 260 272 272 277 284 301 315 331 349 355 2 358 359 3 3 11 13 14 17 21 26 27 27 20 17 22 21 22 32 43
212 236 237 237 243 257 259 276 308 300 293 277 257 259 253 259 266 267 267 263 261 268 269 273 281 290 299 309 328 343 344 341 343 345 350 360 0 1 7 11 15 20 21 19 19 18 13 20 27
211 233 251 249 246 254 271 281 284 279 307 292 281 272 284 272 263 268 271 271 266 264 268 272 272 274 283 293 301 308 318 322 325 329 332 338 344 344 351 356 2 2 10 12 16 18 8 6 5
220 231 246 260 264 274 289 296 293 289 292 277 280 293 285 285 281 268 269 275 268 265 265 265 265 267 274 280 285 289 292 297 306 311 316 317 320 321 325 335 341 345 349 355 358 7 5 359 355
216 234 251 267 276 274 277 284 287 295 291 280 300 297 288 282 276 273 266 265 267 265 262 264 266 268 268 270 274 278 281 284 287 290 293 296 295 300 305 308 315 319 326 332 337 340 344 347 344
220 231 247 266 282 281 286 292 304 313 311 300 297 301 290 282 275 270 268 264 264 269 269 265 266 268 266 265 268 273 275 275 276 280 281 282 283 286 286 291 293 295 301 308 315 319 325 327 323
225 240 247 261 279 290 297 300 302 305 299 297 302 294 290 284 279 270 273 275 273 271 274 272 267 265 265 265 264 266 270 272 274 275 273 275 273 275 277 276 278 283 284 290 293 297 304 311 314
232 247 260 264 270 278 284 293 300 299 290 293 301 298 284 278 278 281 280 277 280 281 276 274 273 269 268 268 267 266 266 268 271 272 274 272 270 269 269 271 270 272 273 275 279 281 282 285 292
247 255 263 267 266 273 283 290 296 294 291 300 294 286 281 284 286 287 289 291 285 278 277 275 274 274 272 270 270 269 267 265 265 268 272 273 271 269 267 266 267 267 268 268 269 272 272 270 272
251 253 259 266 268 268 277 290 294 290 290 288 281 288 293 293 294 299 302 301 299 292 280 275 275 276 275 273 270 269 268 266 265 265 266 268 269 269 268 266 265 265 266 267 265 265 267 269 267
264 272 268 271 276 286 291 285 295 286 283 278 287 288 292 295 299 302 303 302 299 293 288 288 287 282 277 275 274 272 270 268 267 266 265 263 261 262 264 264 264 264 264 266 267 266 265 266 267
267 278 284 283 286 288 290 286 279 280 283 286 288 290 292 296 299 300 298 296 294 292 291 289 285 282 283 281 278 276 272 269 267 266 264 264 264 264 265 264 263 264 264 264 265 266 268 266 266
274 275 276 284 282 283 290 286 280 282 290 292 296 299 301 304 304 302 300 296 292 289 287 285 281 278 277 278 274 279 280 277 271 267 264 262 262 263 263 264 265 264 262 262 263 263 264 266 265
271 274 281 282 284 294 285 282 281 287 291 297 300 301 299 297 294 294 295 294 292 289 287 285 283 277 274 274 273 269 267 272 274 272 268 265 262 262 262 262 263 263 262 262 261 262 262 263 265
277 277 280 280 285 288 277 269 283 290 301 304 301 297 294 293 295 296 297 299 297 293 289 288 287 285 278 271 267 265 264 262 261 263 266 268 266 265 265 265 264 264 264 264 264 263 264 264 266
267 264 270 281 290 290 287 289 287 289 295 296 297 299 301 301 299 296 294 293 291 289 288 286 286 285 284 279 273 271 268 262 260 260 262 262 262 261 261 262 263 262 263 264 263 265 264 265 266
272 274 278 283 294 294 297 297 289 286 289 292 294 294 294 294 292 291 290 289 288 287 289 289 285 283 279 275 270 267 264 261 256 253 255 258 261 262 262 260 258 260 262 262 263 264 264 264 264
273 279 286 291 294 294 294 296 295 296 296 295 294 292 291 289 288 287 286 286 286 289 288 277 278 274 272 272 269 267 269 263 260 260 258 254 253 254 258 260 261 262 261 261 261 260 262 263 262
282 287 288 291 294 295 297 297 298 298 297 294 292 291 290 289 288 288 288 288 287 285 282 281 277 275 271 266 268 270 267 264 264 266 266 263 257 251 249 253 257 258 258 260 260 262 262 262 263
292 295 297 297 299 301 305 306 312 309 302 302 298 296 295 296 296 294 291 290 289 288 285 282 280 276 272 269 266 264 264 264 265 264 266 267 263 257 252 248 247 251 256 257 256 256 258 260 261
300 301 302 303 302 305 309 311 320 318 317 311 308 306 305 304 303 302 301 301 299 293 285 277 274 274 274 271 267 267 268 265 264 265 263 264 265 265 261 256 252 248 248 252 254 254 255 257 259
304 302 305 306 307 308 309 312 321 319 315 312 309 307 306 305 306 306 305 304 304 301 298 292 288 281 276 273 272 271 270 270 270 268 266 264 263 265 265 263 258 256 254 249 249 252 253 254 257
305 306 307 310 312 313 313 311 322 319 314 310 307 305 305 305 304 303 303 302 300 298 295 292 288 285 281 277 276 274 270 267 267 267 266 265 263 261 264 264 261 259 257 254 247 249 252 252 252
304 308 312 315 316 316 316 313 314 311 309 308 306 305 305 305 305 303 302 301 301 299 297 295 294 293 291 287 280 276 271 267 266 265 265 263 262 262 262 261 264 262 259 256 252 248 248 253 251
313 317 316 314 312 310 311 310 310 311 308 307 307 307 307 307 306 305 304 303 300 299 298 297 297 296 294 291 289 286 279 274 269 265 262 259 258 258 258 258 260 262 261 258 253 246 247 250 253
313 311 311 309 308 308 307 306 307 309 305 305 306 307 308 306 305 305 304 304 303 301 301 300 299 298 296 294 292 289 285 281 276 271 267 262 259 258 257 256 256 256 257 257 255 251 246 250 248
309 309 309 308 308 305 306 305 310 304 306 308 309 309 309 309 309 308 307 306 304 304 304 303 302 299 296 294 292 290 287 284 282 279 275 270 265 260 254 252 252 252 251 252 254 253 251 249 244
306 305 305 305 304 303 304 306 309 307 308 310 310 311 310 309 309 308 307 306 305 304 304 303 300 298 296 293 293 291 289 291 288 285 280 276 274 271 266 256 250 249 248 247 247 249 248 249 244
304 306 306 304 304 304 303 310 307 309 309 310 309 311 311 310 308 307 306 306 307 307 305 303 300 298 296 294 294 295 293 289 290 290 287 281 277 275 274 269 262 248 244 244 244 244 245 243 242
Height
5914 5914 5914 5915 5919 5917 5918 5919 5919 5920 5921 5921 5921 5921 5922 5922 5922 5924 5922 5921 5920 5919 5918 5917 5916 5915 5913 5912 5911 5910 5908 5906 5905 5903 5902 5900 5899 5897 5895 5894 5892 5891 5889 5888 5887 5886 5884 5882 5881
5914 5913 5914 5915 5917 5918 5919 5918 5919 5919 5920 5921 5921 5922 5922 5921 5921 5921 5920 5919 5918 5918 5917 5916 5915 5915 5913 5912 5911 5910 5908 5907 5905 5904 5903 5901 5899 5898 5896 5895 5893 5892 5890 5889 5888 5887 5885 5884 5883
5913 5913 5914 5915 5917 5918 5918 5919 5919 5919 5920 5920 5921 5920 5920 5920 5919 5918 5917 5917 5917 5917 5916 5915 5915 5914 5912 5911 5910 5909 5908 5907 5905 5904 5903 5902 5900 5898 5897 5895 5894 5892 5891 5890 5889 5888 5886 5885 5884
5912 5913 5914 5915 5916 5916 5917 5918 5918 5919 5919 5919 5919 5919 5918 5917 5917 5915 5915 5914 5915 5914 5914 5914 5912 5912 5911 5910 5909 5908 5907 5906 5905 5903 5902 5901 5899 5898 5896 5895 5893 5892 5890 5890 5889 5888 5887 5886 5884
5912 5912 5913 5914 5915 5916 5917 5916 5917 5917 5917 5917 5916 5916 5916 5915 5914 5913 5911 5910 5911 5911 5910 5910 5910 5909 5909 5908 5908 5907 5905 5904 5903 5902 5901 5900 5898 5897 5895 5894 5893 5892 5890 5888 5888 5887 5886 5885 5884
5912 5913 5913 5914 5914 5915 5915 5915 5915 5915 5914 5914 5916 5915 5913 5912 5912 5910 5909 5907 5906 5905 5906 5907 5907 5907 5906 5906 5904 5904 5903 5902 5901 5900 5899 5898 5897 5896 5894 5893 5892 5891 5889 5888 5887 5886 5885 5884 5883
5912 5912 5913 5913 5913 5913 5914 5914 5914 5912 5910 5909 5913 5913 5912 5910 5909 5908 5905 5904 5903 5902 5904 5905 5904 5904 5902 5901 5901 5901 5900 5899 5898 5898 5897 5895 5894 5893 5892 5891 5890 5889 5888 5886 5885 5884 5883 5883 5881
5911 5911 5912 5912 5912 5911 5911 5911 5912 5911 5908 5906 5909 5910 5909 5906 5903 5904 5904 5904 5903 5901 5900 5900 5900 5899 5898 5897 5897 5897 5897 5896 5896 5895 5893 5892 5891 5890 5889 5887 5886 5886 5885 5884 5882 5882 5881 5880 5879
5909 5910 5910 5911 5911 5910 5910 5909 5909 5908 5904 5904 5904 5904 5903 5901 5899 5901 5901 5902 5900 5899 5896 5894 5893 5894 5894 5894 5893 5892 5892 5892 5891 5890 5889 5888 5887 5886 5885 5884 5883 5882 5881 5880 5879 5878 5878 5878 5877
5908 5908 5909 5908 5908 5908 5907 5907 5906 5904 5899 5901 5900 5896 5895 5898 5898 5896 5896 5897 5896 5895 5893 5890 5889 5889 5890 5890 5888 5887 5887 5886 5885 5885 5884 5884 5883 5882 5881 5880 5879 5878 5877 5876 5875 5874 5874 5874 5874
5905 5905 5906 5904 5905 5905 5905 5904 5903 5900 5899 5896 5891 5892 5893 5894 5894 5894 5893 5892 5891 5891 5889 5887 5885 5884 5883 5882 5882 5881 5881 5880 5879 5878 5878 5878 5877 5876 5876 5875 5874 5873 5872 5871 5870 5869 5869 5869 5869
5902 5902 5902 5901 5900 5902 5903 5901 5900 5894 5895 5890 5890 5890 5889 5889 5890 5890 5888 5886 5886 5885 5884 5883 5882 5880 5879 5877 5876 5875 5874 5873 5873 5872 5872 5870 5869 5868 5868 5868 5868 5867 5867 5866 5865 5864 5864 5863 5863
5899 5898 5898 5898 5898 5898 5898 5897 5893 5889 5887 5887 5885 5884 5884 5884 5884 5884 5882 5880 5878 5878 5878 5878 5877 5875 5873 5873 5870 5868 5867 5866 5865 5864 5864 5863 5862 5861 5861 5860 5860 5860 5859 5859 5858 5858 5857 5857 5856
5896 5896 5894 5894 5893 5895 5895 5891 5887 5884 5883 5883 5881 5880 5879 5879 5879 5878 5876 5874 5872 5871 5870 5870 5870 5868 5867 5865 5864 5863 5861 5858 5858 5857 5855 5855 5854 5852 5852 5852 5851 5851 5851 5850 5850 5850 5849 5849 5849
5893 5893 5891 5891 5890 5890 5890 5886 5881 5881 5880 5878 5878 5876 5875 5872 5871 5870 5869 5867 5866 5864 5863 5861 5860 5860 5860 5858 5857 5856 5854 5852 5849 5847 5847 5847 5845 5844 5843 5842 5842 5841 5841 5841 5841 5840 5840 5840 5840
5890 5890 5888 5886 5887 5886 5885 5882 5879 5876 5875 5874 5873 5872 5871 5869 5867 5865 5863 5861 5860 5858 5856 5854 5852 5851 5850 5849 5847 5846 5844 5843 5841 5838 5836 5835 5835 5834 5833 5832 5832 5831 5831 5831 5831 5831 5831 5831 5831
5887 5887 5886 5883 5884 5882 5881 5880 5878 5873 5871 5870 5869 5868 5866 5864 5862 5860 5858 5855 5853 5851 5848 5846 5844 5842 5840 5839 5837 5835 5833 5832 5830 5828 5826 5824 5823 5822 5822 5821 5821 5820 5820 5820 5820 5820 5820 5821 5821
5884 5884 5883 5881 5880 5877 5875 5875 5874 5872 5869 5867 5865 5863 5861 5858 5855 5852 5850 5847 5844 5841 5839 5836 5833 5831 5828 5826 5824 5822 5820 5819 5817 5816 5815 5814 5812 5810 5809 5808 5808 5808 5807 5807 5808 5809 5810 5811 5811
5881 5881 5880 5877 5874 5873 5871 5869 5867 5866 5863 5861 5858 5856 5853 5850 5847 5844 5840 5837 5833 5831 5829 5826 5823 5820 5816 5814 5812 5810 5809 5808 5807 5805 5803 5801 5800 5798 5797 5796 5794 5794 5795 5796 5797 5797 5798 5799 5799
5878 5877 5876 5873 5870 5868 5864 5862 5861 5860 5857 5854 5850 5847 5843 5840 5836 5833 5830 5826 5823 5820 5818 5815 5812 5808 5805 5803 5800 5798 5795 5793 5791 5790 5789 5789 5788 5787 5786 5784 5783 5781 5781 5782 5783 5785 5786 5786 5787
5874 5873 5871 5870 5865 5861 5856 5853 5853 5851 5848 5844 5841 5838 5834 5830 5826 5823 5820 5817 5813 5810 5806 5802 5798 5794 5791 5787 5783 5781 5779 5777 5774 5772 5770 5770 5771 5771 5771 5771 5770 5769 5769 5769 5769 5769 5770 5772 5773
5869 5867 5865 5862 5860 5856 5850 5843 5845 5842 5838 5834 5830 5826 5823 5819 5815 5812 5808 5804 5799 5794 5790 5786 5781 5777 5773 5770 5766 5763 5760 5758 5756 5755 5753 5750 5749 5750 5751 5752 5753 5754 5754 5755 5755 5755 5756 5757 5759
5864 5860 5858 5855 5851 5849 5845 5836 5836 5834 5829 5825 5820 5816 5811 5807 5803 5798 5794 5788 5782 5776 5772 5767 5762 5758 5755 5752 5749 5746 5743 5741 5739 5736 5734 5733 5732 5729 5729 5730 5732 5734 5736 5738 5739 5740 5741 5742 5743
5857 5853 5850 5847 5843 5840 5837 5831 5829 5824 5820 5815 5810 5805 5800 5796 5791 5786 5779 5772 5766 5759 5753 5748 5744 5740 5737 5734 5731 5727 5723 5721 5719 5716 5714 5714 5711 5709 5708 5706 5709 5713 5716 5720 5722 5723 5724 5726 5729
5850 5846 5842 5839 5835 5832 5828 5822 5820 5815 5809 5804 5798 5793 5789 5783 5777 5769 5762 5755 5748 5741 5736 5730 5726 5722 5718 5713 5709 5704 5699 5696 5694 5691 5689 5689 5687 5685 5685 5685 5685 5688 5693 5698 5703 5704 5707 5709 5712
5842 5838 5834 5829 5827 5825 5820 5816 5811 5805 5797 5791 5785 5781 5775 5768 5759 5752 5744 5737 5729 5722 5716 5711 5705 5701 5695 5689 5683 5679 5673 5668 5666 5662 5661 5660 5658 5658 5657 5659 5661 5664 5666 5671 5677 5684 5688 5690 5694
5835 5832 5828 5823 5819 5814 5812 5808 5803 5793 5786 5780 5774 5767 5761 5752 5744 5735 5727 5719 5711 5704 5697 5690 5683 5676 5667 5661 5655 5651 5644 5637 5634 5630 5629 5627 5628 5629 5629 5631 5634 5638 5641 5646 5652 5657 5666 5670 5676
5828 5824 5820 5815 5808 5803 5802 5797 5792 5781 5773 5765 5759 5751 5743 5733 5724 5716 5708 5700 5691 5683 5676 5668 5659 5651 5642 5633 5625 5620 5614 5605 5600 5597 5594 5593 5593 5594 5599 5601 5602 5606 5612 5618 5622 5632 5638 5645 5655
5820 5816 5812 5807 5802 5793 5788 5788 5780 5768 5759 5751 5742 5735 5727 5718 5708 5699 5691 5682 5673 5665 5655 5645 5635 5626 5617 5607 5600 5592 5585 5577 5569 5566 5563 5561 5559 5558 5560 5565 5571 5573 5577 5584 5592 5601 5610 5617 5630
5812 5806 5802 5797 5792 5785 5775 5778 5766 5759 5750 5739 5732 5722 5712 5703 5693 5684 5673 5663 5652 5642 5631 5619 5608 5599 5590 5581 5570 5564 5561 5555 5549 5545 5541 5538 5537 5537 5534 5534 5534 5539 5546 5552 5561 5571 5578 5589 5602